Regional Weather Roundup
Issued by NWS

Home | Current Version | Previous Version | Text Only | Print | Product List | Glossary On
Versions: 1 2 3 4 5 6 7 8 9 10 11 12 13 14 15 16 17 18 19 20 21 22 23 24 25 26 27 28 29 30 31 32 33 34 35 36 37 38 39 40 41 42 43 44 45 46 47 48 49 50
000
ASUS43 KDTX 061910
RWRMI
MICHIGAN HOURLY REGIONAL WEATHER ROUNDUP
NATIONAL WEATHER SERVICE DETROIT/PONTIAC MI
300 PM EDT FRI MAY 06 2016

NOTE: "FAIR" INDICATES FEW OR NO CLOUDS BELOW 12,000 FEET WITH NO
SIGNIFICANT WEATHER AND/OR OBSTRUCTION TO VISIBILITY.

MIZ047>049-052>055-059>063-066>070-074>076-081>083-062000-
SOUTHEAST LOWER MICHIGAN

CITY           SKY/WX    TMP DP  RH WIND       PRES   REMARKS
ADRIAN         SUNNY     69  40  34 W9        29.91F
ALMA           SUNNY     70  38  30 SW6       29.91F
ANN ARBOR      SUNNY     69  41  36 S3        29.90F
BAD AXE        SUNNY     68  39  34 SW6       29.91S
CARO           SUNNY     69  41  35 W7        29.90F
DETROIT CITY   SUNNY     70  37  29 VRB5      29.89F
DETROIT        MOSUNNY   71  40  32 NE5       29.90F
FLINT          SUNNY     72  39  30 NW7       29.91F
GROSSE ILE     SUNNY     66  45  45 S5        29.88F
HILLSDALE      MOSUNNY   68  35  29 W10       29.92F
HOWELL         SUNNY     69  40  34 W5        29.92S

CITY           SKY/WX    TMP DP  RH WIND       PRES   REMARKS
JACKSON        SUNNY     70  40  33 VRB6      29.91F
LAMBERTVILLE   SUNNY     71  39  31 W8        29.91F
LANSING        SUNNY     68  36  30 S3        29.92F
LAPEER         FAIR      69  37  30 CALM      29.90F
MASON          SUNNY     69  42  38 SW5       29.92F
MONROE         MOSUNNY   69  45  41 NW5       29.89F
MT. CLEMENS    MOSUNNY   69  40  34 E8G18     29.89F
PONTIAC        MOSUNNY   69  40  34 VRB3      29.90F
PORT HOPE        N/A     52  43  71 E7        29.91F
PORT HURON     SUNNY     66  39  37 NE9       29.90F
TRI CITIES     SUNNY     71  35  26 SW7       29.91F
MIDLAND        FAIR      71  39  31 S7        29.89F
TROY           SUNNY     71  38  30 N7        29.91F
SAGINAW HB     SUNNY     70  36  28 SW6       29.90F
$$
MIZ043>046-050>051-056>058-064>065-071>073-077>080-062000-
SOUTHWEST LOWER MICHIGAN

CITY           SKY/WX    TMP DP  RH WIND       PRES   REMARKS
BATTLE CREEK   SUNNY     69  37  30 W6        29.92F
BENTON HARBOR  SUNNY     69  39  33 SW7       29.92F
BIG RAPIDS     SUNNY     73  33  23 CALM      29.88F
COLDWATER      SUNNY     69  36  29 NW3       29.93F
FREMONT        FAIR      72  31  22 SW10      29.89F
HOLLAND        SUNNY     69  40  34 W7        29.92F
GRAND RAPIDS   MOSUNNY   72  42  34 W8        29.91F
IONIA          FAIR      70  36  29 SW6       29.90F
KALAMAZOO      SUNNY     71  39  31 CALM      29.92F
LUDINGTON      SUNNY     71  42  34 SW13      29.87F
MARSHALL       SUNNY     71  36  27 W9        29.92F
MOUNT PLEASANT   N/A     71  36  27 CALM      29.89F
MUSKEGON       PTSUNNY   67  37  33 S12       29.91F
SOUTH HAVEN    SUNNY     69  35  28 W8        29.92F
$$
MIZ016>042-062000-
NORTHERN LOWER MICHIGAN

CITY           SKY/WX    TMP DP  RH WIND       PRES   REMARKS
ALPENA         SUNNY     66  42  41 E13       29.88F
BEAVER ISLAND  SUNNY     72  37  27 S10G18    29.83F
BELLAIRE       SUNNY     76  38  25 W6        29.84F
CADILLAC       SUNNY     74  40  29 SW8       29.87F
CHARLEVOIX     SUNNY     73  39  29 S9        29.87F
FRANKFORT      SUNNY     71  42  35 SW8       29.85F
GAYLORD        SUNNY     74  36  25 SW5       29.86F
GRAYLING       SUNNY     75  36  24 CALM      29.87F
HARBOR SPRINGS SUNNY     71  42  36 SW3       29.85F
HOUGHTON LAKE  SUNNY     74  35  24 W6        29.88F
MANISTEE       SUNNY     73  37  27 SW8G16    29.86F
OSCODA         SUNNY     70  36  28 S14G21    29.88F
PELLSTON       SUNNY     75  37  25 W6        29.84F
ROGERS CITY    SUNNY     66  40  38 E10       29.87F
TRAVERSE CITY  PTSUNNY   77  40  26 VRB6      29.83F
$$
MIZ007>008-015-062000-
EASTERN UPPER MICHIGAN

CITY           SKY/WX    TMP DP  RH WIND       PRES   REMARKS
KINROSS          N/A     72  36  26 S12G17    29.83F
MACKINAC ISLAN SUNNY     61  35  37 E3        29.86F
NEWBERRY       SUNNY     66  38  35 S18G24    29.81F
S. S. MARIE    SUNNY     74  39  28 S15       29.81F
MUNISING         N/A     74  38  27 S13G22    29.74S
$$
MIZ004>006-011>014-085-062000-
CENTRAL UPPER MICHIGAN

CITY           SKY/WX    TMP DP  RH WIND       PRES   REMARKS
MANISTIQUE     CLOUDY    49  39  69 S7        29.83F
ESCANABA       MOSUNNY   55  43  62 SE9       29.79F
MENOMINEE      SUNNY     75  46  35 E10       29.78F
SAWYER-GWINN   MOSUNNY   81  43  26 SW12      29.77F
$$
MIZ001>003-009>011-084-062000-
WESTERN UPPER MICHIGAN

CITY           SKY/WX    TMP DP  RH WIND       PRES   REMARKS
IRON MOUNTAIN  SUNNY     87  45  23 VRB5      29.72F
HOUGHTON       MOSUNNY   86  44  23 SW12G18   29.68F
COPPER HARBOR    N/A     74  43  32 VRB7      29.67F
IRONWOOD         N/A     88  36  15 W15G24    29.67F
$$

ABBREVIATIONS USED IN REMARKS
   TC - TEMPERATURE IN CELSIUS
  WCI - WIND CHILL INDEX
   HX - HEAT INDEX
  VSB - VISIBILITY





USA.gov is the U.S. government's official web portal to all federal, state and local government web resources and services.